星链-36604(STARLINK-36604)

导读

STARLINK-36604(NORAD编号68142)是美国SpaceX公司星链(Starlink)卫星互联网星座中的一颗第二代通信卫星,属于星链大规模组网的组成部分。该卫星运行于近地轨道,原轨道高度约550公里,根据SpaceX 2026年降轨计划,已调整至480公里,以提升太空运行安全性。卫星质量约227-260kg,配备氪离子推进系统与自主碰撞规避系统,支持Ku/Ka频段通信,为全球提供低时延宽带互联网接入服务,是SpaceX上万颗星链星座部署计划中的典型单元。

基本信息
目录编号:
68142
目录名称:
STARLINK-36604
国际标识:
2026-049A
轨道中心:
EARTH
卫星名称:
星链-36604
卫星全名:
星链-36604(STARLINK-36604)
卫星状态:
在轨 (已飞行176 天)
发射日期:
2026-03-13 UTC
国别 :
美国 (US)
星等 :
--
轨道信息
数据来源 国际轨道数据 AOE轨道数据
星历时间 2026-09-05T03:25:53+0800
12小时前
查看轨道信息
2026-09-03T09:00:00+0800
2天前
查看轨道信息
半长轴 6843.649km 6843.673km
偏心率 0.0001228 0.0001035
轨道倾角 97.285° 97.288°
近地点辐角 81.002° 78.718°
升交点赤经 267.948° 266.207°
平近点角 279.137° 247.911°
近地点 464.671km 464.827km
远地点 466.353km 466.245km
周期 93.906分钟 93.906分钟
每日圈数 15.334557 15.334477
详细信息
固有亮度:
5
最大亮度:
2.5
卫星平台:
Starlink V1.0
覆盖范围:
全球
运营商:
太空探索技术公司
运营商所在国:
美国
制造商(研发单位):
太空探索技术公司
制造商所在国:
美国
使用方式:
暂无
卫星简介
Starlink 计划是 SpaceX 推出的全球卫星互联网项目,通过发射低轨道卫星,为全球尤其是偏远地区提供高速、低延迟的互联网服务。自 2019 年起,Starlink 已部署数千颗卫星,旨在缩小全球数字鸿沟,推动互联网普及。该项目还为军事、航空等行业提供通信支持,带来广泛经济效益。
2D轨道图
3D轨道图
轨道高度分析图
轨道倾角分析图
轨道综合分析图
查看轨道综合分析图
交会数据列表
事件ID 空间交会对象 最接近时刻(TCA) 交会距离 交会风险概率(CRP) 交会风险指数(CRI) 操作
CDM_260907-142206-814206-931821
2026-09-07T
14:22:43+0000
0.468 km
远距离
4.711771E-5 中风险 0.68
CDM_260907-133506-814206-931821
2026-09-07T
13:35:44+0000
0.818 km
远距离
8.046668E-6 低风险 0.53
CDM_260907-150906-814206-931821
2026-09-07T
15:09:42+0000
1.112 km
极远距离
2.856435E-6 低风险 0.44
CDM_260901-203205-719606-814222
2026-09-01T
20:32:52+0000
2.124 km
极远距离
1.441487E-6 低风险 0.38
CDM_260905-141905-816906-814221
2026-09-05T
14:19:21+0000
2.837 km
极远距离
1.430437E-6 低风险 0.38
CDM_260830-171304-811606-814221
2026-08-30T
17:13:28+0000
2.891 km
极远距离
1.398573E-6 低风险 0.38
CDM_260905-083104-810006-814222
2026-09-05T
08:31:31+0000
2.845 km
极远距离
1.358772E-6 低风险 0.38
CDM_260906-113504-841106-814221
2026-09-06T
11:35:57+0000
2.783 km
极远距离
1.288429E-6 低风险 0.37
CDM_260907-131005-285806-814221
2026-09-07T
13:10:04+0000
2.232 km
极远距离
1.255355E-6 低风险 0.37
CDM_260901-220605-719606-814224
2026-09-01T
22:06:50+0000
2.494 km
极远距离
1.054774E-6 低风险 0.35